Volver al catálogo

ONEWEB-0699

ActivoComunicacionesPO
NORAD 61605·PAYLOAD·🇬🇧 United Kingdom

Lanzado Oct 20, 2024 desde Vandenberg Space Force Base

Loading…

Próximos Pases (próximas 24 horas)

TLE

ActualizadoSource: CelesTrak SupGP

Época: Sep 14, 2026, 23:01 UTC

1 61605C 24188M   26257.95921713 -.00001424  00000+0 -40828-2 0  2573
2 61605  87.8916  18.3924 0001273  82.0357  30.7498 13.10378095    13

Sigue ONEWEB-0699 en tiempo real con AllMySat

Download on the App Store